Date,TemperatureHighF,TemperatureAvgF,TemperatureLowF,DewpointHighF,DewpointAvgF,DewpointLowF,HumidityHigh,HumidityAvg,HumidityLow,PressureMaxIn,PressureMinIn,WindSpeedMaxMPH,WindSpeedAvgMPH,GustSpeedMaxMPH,PrecipitationSumIn
2013-1-1,23.2,23.2,23.2,20.4,20.4,20.4,89,89,89,30.45,30.45,0,0,0,0.00
2013-1-2,23.2,23.2,23.2,20.4,20.4,20.4,89,89,89,30.45,30.45,0,0,0,0.00
2013-1-3,23.2,23.2,22.1,20.4,20.4,19.4,89,89,89,30.45,30.45,0,0,1,0.01
2013-1-4,32.7,28.2,25.0,26.8,24.6,21.5,91,86,76,30.52,30.45,3,0,0,0.00
2013-1-12,26.6,25.7,25.2,23.3,22.9,22.4,91,89,85,30.40,30.40,2,1,3,0.00
2013-2-3,35.2,35.0,34.6,34.7,34.3,33.8,98,98,97,30.26,30.23,0,0,1,0.01
2013-2-8,34.1,34.0,34.0,27.2,27.1,27.0,76,76,75,30.17,30.17,2,2,2,0.00
2013-3-2,54.9,53.1,51.6,47.0,46.3,45.8,81,78,74,30.17,30.11,8,4,9,0.00
2013-3-13,55.8,55.1,54.3,43.9,43.4,43.0,67,65,62,30.11,30.09,1,0,2,0.00
2013-3-17,49.2,49.2,49.2,28.2,28.2,28.2,44,44,44,30.09,30.09,11,11,18,0.00
2013-4-5,58.6,58.3,57.9,42.1,41.8,41.5,55,54,53,29.86,29.85,11,10,14,0.00
2013-4-7,54.1,47.0,42.5,38.3,37.0,35.8,77,69,54,29.78,29.67,17,11,27,0.10
2013-4-14,48.2,46.8,45.6,34.9,33.5,32.8,66,60,55,29.96,29.95,6,6,6,0.00
2013-4-21,64.4,55.7,43.7,41.2,37.8,31.1,66,52,33,30.26,30.04,10,4,14,0.00
2013-4-22,43.6,43.1,42.7,33.2,32.1,31.4,69,65,63,30.27,30.26,1,0,1,0.00
2013-4-30,45.0,45.0,45.0,24.9,24.9,24.9,45,45,45,30.35,30.35,0,0,0,0.00
2013-5-10,92.1,92.1,92.1,39.5,39.5,39.5,16,16,16,29.97,29.97,2,2,2,0.00
2013-5-11,75.5,75.1,74.6,53.7,53.4,53.0,47,47,46,30.04,30.04,6,5,10,0.00
2013-5-20,78.6,73.0,62.8,49.1,45.7,42.6,49,38,30,30.20,29.79,2,1,4,0.00
2013-6-9,85.5,76.8,64.5,55.2,42.6,27.1,60,32,12,29.94,29.77,4,2,9,0.00
2013-6-10,63.9,62.9,61.5,41.8,41.2,40.6,47,45,44,29.85,29.84,1,0,1,0.00
2013-6-15,60.2,60.0,59.7,44.4,44.4,44.3,57,56,56,29.97,29.97,1,1,3,0.00
2013-6-22,79.5,74.5,62.7,52.2,47.1,43.7,56,39,30,29.96,29.85,2,1,3,0.00
2013-6-23,73.2,64.6,60.7,58.9,57.4,50.6,91,79,45,29.64,29.61,5,3,6,0.08
2013-6-29,93.3,83.8,73.3,69.2,64.5,60.6,79,54,36,29.98,29.88,4,2,6,0.29
2013-6-30,92.4,85.9,81.6,68.8,66.7,62.8,61,53,46,29.96,29.85,3,1,3,0.00
2013-7-3,78.5,78.5,78.5,61.5,61.5,61.5,56,56,56,29.95,29.95,0,0,2,0.00
2013-7-4,76.4,76.4,76.4,52.2,52.2,52.2,43,43,43,29.78,29.78,1,1,1,0.00
2013-8-25,64.9,64.8,64.7,60.1,59.8,59.3,85,84,82,29.84,29.82,5,3,13,0.00
2013-10-13,63.3,62.0,60.9,40.1,38.6,35.0,46,42,35,30.24,30.23,1,1,3,0.00
2013-10-26,61.4,55.2,49.3,47.8,45.6,42.9,81,70,60,30.32,30.08,4,1,4,0.00
2013-10-27,51.4,48.6,45.8,46.8,44.6,42.7,91,86,79,30.07,29.76,14,4,19,0.01
2013-11-6,42.5,42.5,42.5,37.7,37.7,37.7,83,83,83,30.31,30.31,1,1,1,0.00
2013-11-18,54.7,54.4,54.0,39.5,39.0,38.4,58,56,54,29.85,29.84,14,12,15,0.00
2013-11-23,31.4,31.4,31.4,19.5,19.5,19.5,61,61,61,30.65,30.65,1,1,2,0.00
2013-11-30,30.9,29.5,28.8,29.9,28.5,27.8,96,96,96,30.41,30.39,0,0,0,0.00
2013-12-8,21.0,14.9,10.8,3.2,0.5,-2.1,65,53,42,30.67,30.55,3,1,6,0.00
2013-12-21,36.8,32.9,29.9,29.7,28.1,26.1,89,82,75,30.19,30.11,1,0,3,0.00
2013-12-22,30.1,30.1,30.1,27.3,27.3,27.3,89,89,89,30.19,30.19,0,0,0,0.00
2014-1-1,29.9,29.3,28.5,28.9,28.3,27.3,96,96,95,30.47,30.45,1,0,2,0.00